This demonstration page uses our WeatherBlox Daily Observations layout. Learn more.

39.29038, -76.61219

Hourly Observations for December 13, 2017

Temp ( °F °C ) Dew Point ( °F °C ) Humidity (%) Winds ( mph kmh ) Pressure ( in mb ) Visibility ( mi km ) Precip ( " mm )
12:54 am 00:54 undefined 25 -3.9 -1 -18.3 32 32 undefined N/A 29.77 1008 N/A 0 0
1:54 am 01:54 undefined 24 -4.4 2 -16.7 38 38 undefined N/A 29.74 1007 N/A 0 0
2:54 am 02:54 undefined 23 -5 3 -16.1 42 42 undefined N/A 29.74 1007 N/A 0 0
3:54 am 03:54 undefined 23 -5 2 -16.7 40 40 undefined N/A 29.65 1004 N/A 0 0
4:54 am 04:54 undefined 23 -5 1 -17.2 38 38 undefined N/A 29.77 1008 N/A 0 0
5:22 am 05:22 undefined 23 -5 1 -17.2 38 38 undefined N/A 29.8 1009 N/A 0 0
5:54 am 05:54 undefined 23 -5 1 -17.2 38 38 undefined N/A 29.8 1009 N/A 0 0
6:54 am 06:54 undefined 23 -5 2 -16.7 40 40 undefined N/A 29.8 1009 N/A 0 0
7:54 am 07:54 undefined 23 -5 3 -16.1 42 42 undefined N/A 29.71 1006 N/A 0 0
8:54 am 08:54 undefined 25 -3.9 3 -16.1 39 39 undefined N/A 29.85 1011 N/A 0 0
9:09 am 09:09 undefined 25 -3.9 3 -16.1 39 39 undefined N/A 29.88 1012 N/A 0 0
9:54 am 09:54 undefined 26 -3.3 1 -17.2 34 34 undefined N/A 29.77 1008 N/A 0 0
10:54 am 10:54 undefined 27 -2.8 1 -17.2 32 32 undefined N/A 29.77 1008 N/A 0 0
11:54 am 11:54 undefined 30 -1.1 2 -16.7 30 30 undefined N/A 29.8 1009 N/A 0 0
12:54 pm 12:54 undefined 31 -0.6 2 -16.7 29 29 undefined N/A 29.77 1008 N/A 0 0
1:54 pm 13:54 undefined 32 0 2 -16.7 27 27 undefined N/A 29.77 1008 N/A 0 0
2:54 pm 14:54 undefined 32 0 3 -16.1 29 29 undefined N/A 29.74 1007 N/A 0 0
3:54 pm 15:54 undefined 33 0.6 4 -15.6 29 29 undefined N/A 29.74 1007 N/A 0 0
4:54 pm 16:54 undefined 32 0 7 -13.9 35 35 undefined N/A 29.74 1007 N/A 0 0
5:54 pm 17:54 undefined 32 0 7 -13.9 35 35 undefined N/A 29.74 1007 N/A 0 0
6:54 pm 18:54 undefined 33 0.6 9 -12.8 36 36 undefined N/A 29.74 1007 N/A 0 0
7:54 pm 19:54 undefined 33 0.6 9 -12.8 36 36 undefined N/A 29.68 1005 N/A 0 0
8:54 pm 20:54 undefined 30 -1.1 26 -3.3 85 85 undefined N/A 29.68 1005 N/A 0.01 0.254
9:54 pm 21:54 undefined 30 -1.1 25 -3.9 82 82 undefined N/A 29.68 1005 N/A 0.02 0.508
10:54 pm 22:54 undefined 32 0 22 -5.6 66 66 undefined N/A 29.62 1003 N/A 0 0
11:54 pm 23:54 undefined 34 1.1 21 -6.1 59 59 undefined N/A 29.59 1002 N/A 0 0

Powered by AerisWeather